Welcome to the New NWS' Forecast!
Most changes are behind the scenes, but click here for differences you might notice.
Latest weather observations around

Whitefield - Mount Washington Regional Airport (KHIE)

Using English Units (Switch to International System of Units)
Date/ Time (EST) Wind (mph) Vis. (mi) Weather Sky Cond. Temp (°F) Rel. Humidity Wind Chill (°F) Heat Index (°F) Pressure Precip. (in)
Air Dwpt 6 hour Altimeter (inHg) Sea level (inHg) 1 hr 3 hr 6 hr
Max Min
Dec 09 14:52 SW 8 10 Cloudy OVC029 28 17     63% 20   30.1 30.16      
Dec 09 14:22 SW 3 10 Cloudy OVC029 28 16     60% 24   30.11        
Dec 09 13:52 WSW 5 10 Cloudy OVC031 28 16     60% 23   30.12 30.19      
Dec 09 12:52 WNW 3 10 Cloudy OVC034 25 14     63% 21   30.15 30.22      
Dec 09 11:52 Calm 10 Cloudy OVC035 20 13     74%     30.19 30.26      
Dec 09 10:52 Calm 10 Cloudy OVC038 16 11     80%     30.24 30.31      
Dec 09 09:52 Calm 10 Cloudy OVC038 12 8     84%     30.28 30.36      
Dec 09 08:52 Calm 10 Cloudy OVC038 7 3     83%     30.29 30.38      
Dec 09 07:52 Calm 10 Cloudy OVC036 2 -1     87%     30.3 30.39      
Dec 09 06:52 Calm 10 Cloudy OVC037 1 -3     83%     30.32 30.41     0
Dec 09 06:29 Calm 10 Partly Cloudy SCT016 SCT040 0 -4     83%     30.32        
Dec 09 05:52 Calm 7 Cloudy BKN024 OVC034 2 -2     83%     30.33 30.42 0    
Dec 09 05:41 Calm 7 Cloudy BKN029 OVC038 2 -2     83%     30.33   0    
Dec 09 04:52 Calm 6 Light Snow and Fog/Mist FEW028 OVC039 2 -2     83%     30.34 30.42 0    
Dec 09 04:37 Calm 9 Cloudy SCT027 OVC040 2 -2     83%     30.34        
Dec 09 03:59 Calm 10 Cloudy BKN028 OVC039 2 -2     83%     30.34        
Dec 09 03:52 Calm 10 Cloudy SCT029 OVC040 2 -2     83%     30.35 30.43      
Dec 09 02:52 Calm 10 Cloudy OVC036 2 -1     87%     30.36 30.44      
Dec 09 02:34 Calm 10 Mostly Cloudy BKN030 3 -1     83%     30.36        
Dec 09 02:01 Calm 10 Cloudy BKN026 OVC039 5 0     79%     30.36        
Dec 09 01:52 Calm 10 Cloudy SCT030 OVC038 5 2     87%     30.36 30.44      
Dec 09 00:52 Calm 10 Cloudy OVC050 4 0     83%     30.37 30.44     0
Dec 09 00:32 Calm 10 Cloudy SCT019 OVC050 3 0     87%     30.37        
Dec 08 23:52 NNW 3 10 Mostly Cloudy BKN026 3 -1     83% -4   30.38 30.46 0    
Dec 08 22:59 Calm 8 Light Snow BKN024 OVC038 6 1     79%     30.38   0    
Dec 08 22:52 Calm 7 Light Snow SCT021 OVC038 7 1     76%     30.38 30.46 0    
Dec 08 22:29 Calm 10 Cloudy SCT027 OVC037 7 2     79%     30.38   0    
Dec 08 22:09 Calm 8 Light Snow BKN028 OVC037 7 1     76%     30.37   0    
Dec 08 21:52 Calm 10 Cloudy OVC037 6 0     75%     30.37 30.46      
Dec 08 20:52 Calm 10 Cloudy SCT041 OVC048 4 0     83%     30.38 30.47      
Dec 08 19:52 Calm 10 Cloudy FEW050 OVC070 2 -3     80%     30.38 30.48      
Dec 08 18:52 Calm 10 Mostly Clear FEW070 2 -3     80%     30.37 30.47      
Dec 08 17:52 Calm 10 Clear CLR 6 -2     69%     30.36 30.45      
Dec 08 16:52 Calm 10 Mostly Cloudy BKN075 BKN090 9 -1     63%     30.35 30.44      
Dec 08 15:52 WSW 5 10 Clear CLR 14 -5     42% 6   30.34 30.42      
Dec 08 14:52 W 7 10 Clear CLR 15 -4     42% 5   30.34 30.42      
Dec 08 13:52 WSW 6 10 Clear CLR 16 -5     38% 7   30.33 30.41      
Dec 08 12:52 WSW 8 10 Clear CLR 15 -8     35% 4   30.34 30.42      
Dec 08 11:52 W 6 10 Clear   13 -7     40% 4   30.35 30.42      
Dec 08 10:52 WNW 6 10 Clear CLR 11 -2     55% 1   30.37 30.45      
Dec 08 09:52 Calm 10 Clear CLR 4 1     88%     30.38 30.47      
Dec 08 08:52 Calm 10 Clear CLR -4 -8     83%     30.38 30.47      
Dec 08 07:52 Calm 10 Clear CLR -8 -14     74%     30.36 30.45      
Dec 08 06:52 Calm 10 Clear CLR -8 -13     78%     30.35 30.44      
Dec 08 05:52 Calm 10 Clear CLR -7 -11     82%     30.35 30.43      
Dec 08 04:52 Calm 10 Clear CLR -6 -10     82%     30.35 30.43      
Dec 08 03:52 Calm 10 Clear CLR -4 -10     75%     30.35 30.43      
Dec 08 02:52 Calm 10 Clear CLR -2 -7     79%     30.35 30.42      
Dec 08 01:52 Calm 10 Clear CLR -1 -6     79%     30.35 30.42      
Dec 08 00:52 Calm 10 Clear CLR 2 -1     87%     30.34 30.42      
Dec 08 00:24 Calm 10 Mostly Clear FEW023 4 0     83%     30.35        
Dec 07 23:52 Calm 10 Cloudy OVC024 6 2     83%     30.35 30.42      
Dec 07 22:52 Calm 10 Mostly Cloudy BKN027 5 1     83%     30.33 30.4      
Dec 07 21:52 Calm 10 Clear CLR 6 3     87%     30.33 30.4      
Dec 07 20:52 Calm 10 Clear CLR 7 3     83%     30.32 30.39      
Dec 07 18:52 SW 5 10 Clear CLR 15 6     67% 8   30.3 30.36      
Dec 07 17:52 W 5 10 Partly Cloudy SCT033 16 6     64% 9   30.3 30.35      
Dec 07 16:52 W 3 10 Mostly Clear FEW032 16 6     64% 11   30.27 30.33      
Dec 07 15:52 NW 7 10 Partly Cloudy SCT029 18 8     65% 9   30.26 30.31      
Dec 07 14:52 W 9 10 Mostly Cloudy BKN025 BKN033 20 8     59% 9   30.24 30.29      
Dec 07 13:52 W 10 10 Cloudy OVC032 21 9     59% 10   30.22 30.28      
Dec 07 13:16 NW 10 10 Cloudy BKN030 OVC035 22 11     62% 11   30.21        
Dec 07 12:52 WNW 11 10 Cloudy OVC029 22 11     62% 10   30.2 30.25     0
Dec 07 11:52 W 6 10 Cloudy OVC028 22 12     65% 14   30.19 30.24      
Dec 07 10:52 W 8 10 Cloudy BKN027 OVC031 22        % 13   30.18 30.23 0    
Dec 07 09:52 WNW 9 9 Cloudy BKN022 OVC029 23        % 13   30.17 30.22 0 0  
Dec 07 09:27 WNW 15 9 Light Snow BKN027 23        % 10   30.15   0    
Dec 07 08:52 W 14 10 Mostly Cloudy SCT027 BKN035 24        % 12   30.14 30.19      
Dec 07 08:24 WNW 8 10 Mostly Cloudy BKN029 24 15     68% 15   30.12        
Dec 07 08:07 NW 10 10 Mostly Cloudy SCT025 SCT030 BKN036 24 16     71% 14   30.11        
Dec 07 07:52 WNW 11 10 Cloudy BKN025 BKN029 OVC037 25 17     71% 14   30.11 30.16      
Dec 07 06:52 WNW 6 10 Mostly Cloudy BKN037 27 19     72% 20   30.07 30.12     0
Dec 07 06:20 W 11 10 Cloudy SCT022 BKN039 OVC050 27 20     75% 17   30.06        
Dec 07 06:00 WNW 13 10 Cloudy BKN021 BKN025 OVC046 29 23     78% 19   30.04        
Dec 07 05:52 W 7 10 Cloudy FEW016 BKN033 OVC046 29 23     78% 22   30.03 30.08 0    
Dec 07 05:23 W 8 5 Light Snow and Fog/Mist OVC016 29 25     85% 21   30.01   0    
Dec 07 05:15 W 8 5 Light Snow and Fog/Mist BKN014 OVC020 29 25     85% 21   30.01   0    
Dec 07 04:52 5 6 Light Snow and Fog/Mist OVC022 29 26     89% 24   29.99 30.03 0    
Dec 07 04:32 Calm 5 Light Snow and Fog/Mist SCT011 OVC022 28 26     92%     29.98   0    
Dec 07 04:22 Calm 2 Light Snow and Fog/Mist SCT011 BKN022 OVC029 28 26     92%     29.98   0    
Dec 07 03:36 Calm 3 Light Snow and Fog/Mist BKN014 BKN025 OVC035 29 26     89%     29.96   0    
Dec 07 03:25 Calm 1.5 Light Snow and Fog/Mist BKN014 BKN019 OVC035 29 26     89%     29.96   0    
Dec 07 03:14 Calm 2.5 Light Snow and Fog/Mist BKN018 OVC035 28 26     92%     29.96   0    
Dec 07 03:03 SSE 3 1.75 Light Snow and Fog/Mist BKN018 BKN025 OVC033 28 26     92% 24   29.96   0    
Dec 07 02:52 Calm 4 Light Snow and Fog/Mist BKN020 OVC025 29 26     89%     29.96 30 0    
Dec 07 02:44 Calm 2.5 Light Snow and Fog/Mist BKN023 BKN029 OVC038 29 26     89%     29.96   0    
Dec 07 02:34 Calm 4 Light Snow and Fog/Mist SCT024 BKN031 OVC040 28 26     92%     29.96   0    
Dec 07 02:26 Calm 2.5 Light Snow and Fog/Mist FEW024 SCT031 OVC040 28 25     88%     29.95   0    
Dec 07 02:16 3 3 Light Snow and Fog/Mist SCT022 SCT031 OVC041 28 25     88% 24   29.95   0    
Dec 07 01:52 Calm 10 Cloudy OVC022 27 25     92%     29.95 29.99      
Dec 07 00:52 Calm 10 Cloudy BKN023 OVC031 28 25     88%     29.94 29.98 0   0
Dec 07 00:49 Calm 9 Cloudy BKN023 OVC030 28 25     86%     29.94   0    
Dec 06 23:52 Calm 9 Cloudy OVC047 30 24     78%     29.95 29.99 0    
Dec 06 23:23 Calm 9 Light Snow BKN036 OVC049 30 23     75%     29.95   0    
Dec 06 23:03 3 4 Light Snow OVC027 30 24     78% 27   29.95   0    
Dec 06 22:52 3 3 Light Snow OVC033 30 24     78% 27   29.95 29.99 0    
Dec 06 21:52 SW 5 10 Cloudy BKN060 OVC070 31 22     69% 26   29.95 29.99      
Dec 06 20:52 WSW 6 10 Cloudy OVC060 29 21     72% 23   29.96 30      
Dec 06 19:52 Calm 10 Cloudy BKN065 OVC120 27 22     81%       30      
Dec 06 18:52 Calm 10 Cloudy OVC055 29 21     72%     29.96 30.01      
Dec 06 17:52 Calm 10 Cloudy FEW035 OVC055 29 22     75%     29.96 30.01      
Dec 06 16:52 Calm 10 Cloudy OVC046 29 21     72%     29.96 30.01      
Dec 06 15:52 SW 6 10 Cloudy BKN039 OVC050 30 22     71% 24   29.95 30      
Dec 06 14:52 SW 7 10 Cloudy OVC065 30 22     71% 23   29.94 29.98      
Dec 06 13:52 W 8 10 Cloudy OVC080 30 20     66% 22   29.92 29.97      
Dec 06 13:29 WSW 10 10 Cloudy SCT025 OVC080 30 20     66% 21   29.93        
Dec 06 12:52 SW 8 10 Cloudy BKN024 OVC080 31 21     66% 23   29.93 29.98 0   0
Dec 06 12:41 SW 9 10 Mostly Cloudy BKN024 BKN080 30 21     69% 22   29.93   0    
Dec 06 12:03 WSW 7 5 Light Snow BKN039 BKN046 OVC085 29 23     78% 22   29.94   0    
Dec 06 11:52 WSW 8 2.5 Light Snow OVC041 29 23     78% 21   29.94 29.99 0    
Dec 06 10:52 W 7 10 Cloudy OVC049 29 22     75% 22   29.97 30.02      
Dec 06 09:52 NW 5 10 Mostly Cloudy BKN075 26 22     84% 20   29.98 30.03      
Dec 06 08:52 Calm 9 Cloudy FEW036 BKN048 OVC070 24 21     88%     30 30.05      
Dec 06 08:10 Calm 10 Cloudy SCT022 BKN039 OVC048 22 20     92%     30        
Dec 06 07:52 Calm 10 Cloudy OVC021 22 19     88%     29.99 30.05      
Dec 06 06:52 Calm 10 Cloudy OVC018 22 20     92%     29.98 30.03     0
Dec 06 05:52 Calm 10 Cloudy FEW017 BKN022 OVC026 22 20     92%     29.98 30.03 0    
Dec 06 04:52 Calm 5 Light Snow and Fog/Mist OVC029 22 20     92%     29.97 30.03 0    
Dec 06 04:48 Calm 5 Light Snow and Fog/Mist OVC029 21 19     93%     29.97   0    
Dec 06 03:52 Calm 7 Light Snow OVC036 22 19     88%     29.98 30.03 0 0  
Dec 06 03:04 Calm 3 Light Snow and Fog/Mist SCT021 OVC040 22 19     88%     29.99   0    
Dec 06 02:52 Calm 4 Light Snow and Fog/Mist BKN021 BKN032 OVC042 22 19     88%     29.99 30.04 0    
Dec 06 01:52 Calm 9 Light Snow OVC026 22 18     84%     29.99 30.05 0    
Dec 06 00:52 Calm 10 Cloudy OVC028 21 18     88%     29.98 30.03      
Dec 06 00:18 Calm 10 Cloudy OVC029 22 18     84%     29.99        
Dec 05 23:52 Calm 10 Cloudy OVC031 22 17     81%     29.99 30.04      
Dec 05 22:52 Calm 10 Cloudy OVC037 21 17     84%     29.98 30.03      
Dec 05 21:52 Calm 10 Cloudy OVC060 21 17     84%     29.97 30.03      
Dec 05 20:52 Calm 10 Cloudy SCT044 OVC055 22 16     78%     29.98 30.04      
Dec 05 19:52 Calm 10 Cloudy OVC049 22 16     78%     29.99 30.06      
Dec 05 18:52 ESE 5 10 Cloudy OVC045 23 17     78% 17   30 30.06      
Dec 05 17:52 Calm 10 Cloudy OVC049 24 17     74%     30 30.06      
Dec 05 16:52 W 3 10 Cloudy OVC050 24 17     74% 20   30 30.06      
Dec 05 15:52 Calm 8 Cloudy OVC049 25 15     66%     29.99 30.04      
Dec 05 14:52 Calm 10 Clear CLR 27 14     58%     29.98 30.03      
Dec 05 13:52 WNW 6 10 Mostly Clear FEW029 25 13     60% 18   29.98 30.03      
Dec 05 12:52 3 10 Clear CLR 27 13     55% 23   29.98 30.03      
Dec 05 11:52 Calm 10 Clear CLR 27 13     55%     30.01 30.07      
Dec 05 10:52 Calm 10 Clear CLR 24 14     65%     30.03 30.09      
Dec 05 09:52 Calm 10 Clear CLR 18 13     80%     30.05 30.11      
Dec 05 08:52 Calm 10 Clear CLR 11 8     88%     30.04 30.1      
Dec 05 07:52 Calm 7 Clear CLR 6 2     83%     30.03 30.1      
Dec 05 06:52 Calm 10 Clear CLR 7 3     83%     30.02 30.09     0
Dec 05 06:01 Calm 10 Mostly Clear FEW029 9 6     88%     30.02        
Dec 05 05:52 Calm 10 Mostly Cloudy BKN029 10 6     84%     30.02 30.09      
Dec 05 04:52 Calm 6 Fog/Mist BKN025 OVC031 12 9     87%     30.01 30.08 0    
Dec 05 04:50 Calm 6 Light Snow and Fog/Mist BKN025 OVC031 12 9     85%     30.02   0    
Dec 05 03:52 Calm 9 Cloudy OVC030 12 9     87%     30.02 30.08   0  
Dec 05 03:41 Calm 10 Cloudy OVC028 12 9     87%     30.02        
Dec 05 02:52 Calm 10 Clear CLR 13 9     84%     30.02 30.08 0    
Dec 05 02:37 Calm 10 Partly Cloudy SCT015 14 10     84%     30.01   0    
Dec 05 02:14 Calm 6 Fog/Mist BKN017 OVC037 15 12     87%     30.02   0    
Dec 05 01:52 Calm 6 Light Snow and Fog/Mist FEW024 OVC037 17 13     83%     30.02 30.08 0    
Dec 05 01:36 Calm 10 Cloudy SCT026 OVC037 17 13     83%     30.02        
Dec 05 01:06 SW 3 10 Mostly Cloudy SCT020 BKN026 18 12     77% 13   30.01        
Dec 05 00:52 WSW 6 10 Mostly Clear FEW022 FEW039 18 12     77% 10   30.01 30.07      
Dec 04 23:52 Calm 10 Cloudy OVC033 20 12     71%     30.02 30.07      
Dec 04 22:52 WSW 3 10 Cloudy OVC032 20 12     71% 15   30.01 30.06      
Dec 04 21:52 5 10 Cloudy OVC032 20 11     68% 13   30 30.06      
Dec 04 20:52 SW 5 10 Cloudy OVC030 20 12     71% 13   29.99 30.04      
Dec 04 19:52 W 3 10 Cloudy OVC031 20 11     68% 15   29.98 30.03      
Dec 04 18:52 W 5 10 Cloudy OVC032 20 10     65% 13   29.97 30.03      
Dec 04 17:52 NW 7 10 Cloudy OVC033 20 9     62% 11   29.96 30.01      
Dec 04 16:52 NNW 8 10 Cloudy OVC034 20 9     62% 10   29.94 29.99      
Dec 04 15:52 W 8 10 Cloudy OVC033 21 10     62% 11   29.91 29.96      
Dec 04 14:52 WNW 11 10 Cloudy OVC037 22 9     57% 10   29.9 29.95      
Dec 04 13:52 NW 13 10 Cloudy OVC036 22 8     55% 10   29.89 29.94      
Dec 04 12:52 NW 10 10 Cloudy OVC035 21 10     62% 10   29.88 29.93 0   0
Dec 04 12:03 NW 11 5 Light Snow BKN035 OVC045 21 12     68% 9   29.87   0    
Dec 04 11:52 NNW 14 2.5 Light Snow SCT030 BKN038 OVC045 21 12     68% 8   29.87 29.92 0    
Dec 04 10:52 NW 16 7 Cloudy FEW029 OVC042 22 10     60% 8   29.87 29.92 0    
Dec 04 10:37 WNW 13 6 Light Snow BKN031 OVC039 22 13     68% 10   29.88   0    
Dec 04 10:26 NNW 7 3 Light Snow BKN028 BKN035 OVC043 21 15     77% 12   29.87   0    
Dec 04 10:03 NNW 13 1.75 Light Snow BKN026 BKN035 OVC043 21 12     68% 9   29.88   0    
Dec 04 09:52 WNW 14 10 Cloudy BKN036 OVC044 22 10     60% 9   29.87 29.92 0 0  
Dec 04 09:37 WNW 14 9 Cloudy FEW024 BKN034 OVC044 22 11     62% 9   29.87   0    
Dec 04 09:24 NW 10 3 Light Snow BKN025 BKN031 OVC042 21 13     70% 10   29.87   0    
Dec 04 08:52 WNW 10 10 Cloudy OVC040 22 12     65% 11   29.85 29.9 0    
Dec 04 08:00 WNW 11 9 Cloudy FEW019 SCT027 OVC035 22 16     78% 10   29.83   0    
Dec 04 07:52 WNW 10 4 Light Snow FEW018 BKN029 OVC037 22 16     78% 11   29.83 29.87 0    
Dec 04 07:08 NNW 6 4 Light Snow SCT021 BKN028 OVC036 23 17     78% 16   29.81   0    
Dec 04 06:52 NW 6 10 Light Snow FEW024 SCT030 OVC036 23 16     74% 16   29.8 29.84 0   0
Dec 04 05:52 NNW 14 9 Cloudy SCT025 OVC038 25 17     71% 13   29.77 29.81 0    
Dec 04 05:28 NW 10 8 Light Snow BKN023 OVC037 26 20     77% 16   29.75   0    
Dec 04 05:02 NW 6 7 Light Snow SCT024 OVC035 26 20     77% 19   29.74   0    
Dec 04 04:52 NW 8 6 Light Snow SCT024 BKN029 OVC036 27 20     75% 19   29.74 29.77 0    
Dec 04 04:31 7 10 Cloudy BKN026 BKN032 OVC042 27 20     75% 19   29.73   0    
Dec 04 03:52 NNW 10 9 Cloudy OVC037 28 20     71% 19   29.72 29.75 0 0  
Dec 04 03:24 NW 8 9 Cloudy FEW024 SCT030 OVC039 28 22     78% 20   29.72   0    
Dec 04 02:52 5 8 Light Snow BKN025 OVC031 28 23     81% 23   29.71 29.74 0    
Dec 04 02:41 W 6 9 Light Snow SCT025 OVC032 28 23     81% 22   29.7   0    
Dec 04 02:33 WNW 7 10 Cloudy BKN027 OVC036 28 23     81% 21   29.7   0    
Dec 04 01:52 W 5 6 Light Snow SCT022 OVC032 28 23     81% 23   29.69 29.72 0    
Dec 04 01:43 W 3 3 Light Snow SCT020 BKN026 OVC031 28 23     81% 24   29.69   0    
Dec 04 01:29 W 7 8 Light Snow FEW020 BKN030 OVC037 28 22     78% 21   29.68   0    
Dec 04 00:52 5 10 Cloudy OVC028 28 21     75% 23   29.68 29.71      
Dec 03 23:52 NNW 9 10 Cloudy OVC021 28 21     75% 19   29.67 29.71      
Dec 03 22:52 NW 10 10 Cloudy OVC017 28 22     78% 19   29.66 29.69      
Dec 03 21:52 WNW 10 10 Cloudy OVC021 28 22     78% 19   29.64 29.67      
Dec 03 20:52 NW 10 10 Cloudy OVC022 30 23     75% 21   29.61 29.64      
Dec 03 19:52 WNW 7 10 Cloudy OVC020 31 26     82% 24   29.6 29.63      
Dec 03 18:52   10 Cloudy BKN016 OVC028 34 30     85%     29.57 29.6     0
Dec 03 18:06 WSW 9 10 Cloudy BKN020 OVC050 35 30     82% 28   29.54        
Dec 03 17:52 WSW 8 10 Cloudy FEW022 OVC050 36 30     79% 30   29.54 29.57 0    
Dec 03 17:41   10 Cloudy FEW016 SCT025 OVC049 36 31     82%     29.52   0    
Dec 03 17:22 W 15 10 Light Rain SCT013 BKN020 OVC031 37 34     89% 28   29.51   0    
Dec 03 17:13   8 Light Rain BKN014 BKN029 OVC055 37 34     89%     29.5   0    
Dec 03 16:52 W 10 9 Light Rain SCT015 BKN022 OVC055 38 34     85% 31   29.49 29.52 0    
Dec 03 16:50 W 10 8 Light Rain SCT015 BKN022 OVC055 37 34     87% 30   29.49   0    
Dec 03 16:03 SW 6 10 Light Rain FEW023 BKN033 OVC045 40 37     89% 36   29.46   0    
Dec 03 15:52 7 10 Light Rain FEW023 BKN028 OVC035 40 37     89% 35   29.46 29.49 0 0  
Dec 03 14:52 SW 3 10 Cloudy OVC037 41 38     89% 39   29.44 29.47 0    
Dec 03 13:52 SW 7 10 Light Rain FEW019 OVC050 41 38     89% 36   29.43 29.46 0    
Dec 03 13:13 SW 5 10 Cloudy FEW021 SCT031 OVC046 41 38     89% 38   29.43        
Dec 03 12:52 SW 3 10 Cloudy SCT020 BKN027 OVC055 42 39     89% 40   29.42 29.45 0   0
Dec 03 11:52 WNW 7 10 Light Rain BKN023 OVC029 40 38     93% 35   29.43 29.46 0    
Dec 03 11:15 NNW 5 10 Cloudy FEW002 BKN029 OVC034 38 37     97% 34   29.44   0    
Dec 03 11:00 Calm 10 Cloudy FEW003 BKN033 OVC080 39 38     96%     29.45   0    
Dec 03 10:52 NW 3 10 Light Rain SCT022 BKN035 OVC055 39 38     96% 37   29.45 29.48 0    
Dec 03 10:42 Calm 10 Light Rain FEW017 BKN042 OVC080 39 38     96%     29.45   0    
Dec 03 10:18 Calm 6 Light Rain and Fog/Mist SCT014 BKN024 OVC034 37 37     100%     29.46   0    
Dec 03 10:05 Calm 7 Light Rain FEW014 SCT021 OVC030 37 36     96%     29.47   0    
Dec 03 09:52 SW 3 3 Light Rain and Fog/Mist SCT013 BKN020 OVC030 37 36     96% 35   29.47 29.5 0 0  
Dec 03 09:42 Calm 6 Light Rain and Fog/Mist FEW003 BKN016 OVC031 37 36     96%     29.47   0    
Dec 03 09:34 Calm 2 Rain and Fog/Mist SCT003 OVC015 37 36     96%     29.46   0    
Dec 03 09:30 Calm 1.25 Rain and Fog/Mist BKN003 OVC015 37 36     96%     29.46   0    
Dec 03 08:52 Calm 0.25 Light Rain and Fog VV003 36 36     100%     29.45 29.48 0    
Dec 03 07:52 Calm 0.25 Fog VV002 35 35     100%     29.45 29.48      
Dec 03 06:52 Calm 0.25 Fog VV003 34 34     100%     29.44 29.47     0
Dec 03 04:52 E 3 1 Fog/Mist OVC003 36 36     100% 33   29.48 29.51      
Dec 03 04:38 WSW 5 1.5 Fog/Mist OVC003 36 35     96% 32   29.5        
Dec 03 04:29 W 5 2 Fog/Mist OVC003 36 35     96% 32   29.49        
Dec 03 04:16 NNW 3 4 Fog/Mist OVC004 36 36     100% 33   29.47        
Dec 03 04:01 Calm 4 Fog/Mist OVC005 36 35     96%     29.48        
Dec 03 03:52 ENE 3 2.5 Fog/Mist OVC005 36 35     96% 33     29.51      
Dec 03 03:44 Calm 2 Fog/Mist OVC005 35 35     100%     29.5        
Dec 03 03:36 Calm 1.75 Fog/Mist OVC006 35 35     100%     29.51        
Dec 03 02:52 Calm 8 Cloudy OVC008 36 36     100%     29.51 29.53      
Dec 03 02:48 Calm 6 Fog/Mist OVC008 36 36     100%     29.51        
Dec 03 02:00 Calm 3 Fog/Mist FEW002 OVC013 35 34     96%     29.51        
Dec 03 01:52 Calm 1.5 Fog/Mist FEW002 OVC013 35 34     96%     29.51 29.53      
Dec 03 01:36 Calm 1 Fog/Mist SCT002 OVC015 35 34     96%     29.51        
Dec 03 01:08 Calm 0.5 Fog SCT002 OVC015 35 34     96%     29.51        
Dec 03 00:52 Calm 0.5 Fog OVC002 35 35     100%     29.51 29.54      
Dec 03 00:26 Calm 0.5 Fog BKN002 BKN010 OVC016 35 35     100%     29.52        
Dec 03 00:23 Calm 0.5 Fog SCT002 SCT010 OVC016 35 35     100%     29.52        
Dec 03 00:05 Calm 0.75 Fog/Mist OVC016 35 35     100%     29.53        
Dec 02 23:52 Calm 1 Fog/Mist FEW002 OVC016 35 35     100%     29.53 29.56      
Dec 02 23:47 Calm 1 Fog/Mist SCT002 OVC018 36 36     100%     29.54        
Dec 02 23:21 Calm 1 Fog/Mist OVC003 35 35     100%     29.54        
Dec 02 23:10 Calm 1.5 Fog/Mist OVC003 35 35     100%     29.54        
Dec 02 23:03 Calm 2 Fog/Mist OVC003 36 35     96%     29.54        
Dec 02 22:52 NNW 3 1.25 Fog/Mist OVC003 35 35     100% 32   29.54 29.57      
Dec 02 22:40 Calm 1.75 Fog/Mist OVC003 36 34     92%     29.55        
Dec 02 22:18 Calm 8 Cloudy BKN004 OVC015 36 36     100%     29.55        
Dec 02 22:11 ENE 3 2.5 Fog/Mist SCT003 BKN011 OVC016 36 35     96% 33   29.55        
Dec 02 22:00 E 5 1.5 Fog/Mist SCT003 OVC016 36 35     96% 32   29.56        
Dec 02 21:52 W 3 1 Fog/Mist BKN004 OVC018 36 35     96% 33   29.56 29.59      
Dec 02 21:48 Calm 0.75 Fog/Mist OVC004 36 36     100%     29.56        
Dec 02 21:23 ESE 3 1 Fog/Mist OVC004 36 35     96% 33   29.57        
Dec 02 21:18 Calm 1.75 Fog/Mist OVC006 36 36     100%     29.57        
Dec 02 21:10 Calm 3 Fog/Mist BKN006 OVC013 36 36     100%     29.58        
Dec 02 20:52 Calm 1.5 Fog/Mist OVC006 36 35     96%     29.57 29.6      
Dec 02 20:32 Calm 1 Fog/Mist BKN006 OVC017 36 36     100%     29.56        
Dec 02 20:08 Calm 1.75 Fog/Mist BKN007 OVC021 36 35     96%     29.56        
Dec 02 20:01 Calm 4 Fog/Mist BKN007 OVC022 36 35     96%     29.56        
Dec 02 19:52 Calm 6 Fog/Mist SCT007 OVC022 36 35     96%     29.56 29.59      
Dec 02 18:52 Calm 10 Cloudy FEW006 OVC024 37 36     96%     29.58 29.6 0   0
Dec 02 18:22 Calm 10 Light Rain OVC028 38 37     97%     29.59   0    
Dec 02 17:52 N 3 10 Light Rain OVC030 40 38     93% 38   29.58 29.61 0    
Dec 02 16:52 NW 6 10 Light Rain OVC036 40 38     93% 36   29.6 29.63 0    
Dec 02 15:52 NW 7 10 Light Rain OVC041 41 38     89% 36   29.62 29.65 0 0  
Dec 02 15:03 WNW 3 3 Rain and Fog/Mist BKN047 OVC055 42 38     85% 40   29.65   0    
Dec 02 14:52 NNW 6 2 Rain and Fog/Mist FEW023 BKN050 OVC070 42 38     85% 38     29.7 0    
Notice The following observation data may not be complete
Dec 02 14:21 S 16 2 Heavy Rain BKN049 BKN070 OVC090   37      %         0    
Dec 02 13:52 S 13 10 Light Rain OVC046 42 35     76% 35   29.68   0    
Notice The following observation data may not be complete
Dec 02 12:52 SSE 11 10 Cloudy OVC048   35      %     29.73 29.76 0   0
Dec 02 11:52 S 15 10 Cloudy OVC049 41 34     76% 33   29.79 29.83      
Dec 02 10:52   10 Cloudy BKN042 OVC050 41 33     73%     29.86 29.9 0    
Dec 02 09:52 SSE 10 10 Cloudy OVC050 39 33     79% 32   29.88   0 0  
Dec 02 08:52 SSE 6 10 Light Rain FEW031 OVC049 38 32     79% 33     29.96 0    
Dec 02 07:52 3 10 Light Rain OVC045 37 32     82% 35   29.96 29.99 0    
Notice The following observation data may not be complete
Dec 02 06:52   9 Light Rain OVC042   30      %     29.98 30.02 0   0
Dec 02 05:52 3 10 Unknown Precipitation OVC047 31 29     92% 28   30 30.05 0    
Dec 02 05:22 3 6 Light Snow and Fog/Mist FEW012 BKN038 OVC055 30 28     92% 27   30.01   0    
Dec 02 05:14 Calm 3 Light Snow and Fog/Mist FEW008 BKN027 OVC050 29 28     96%     30.02   0    
Dec 02 04:52 NNW 3 1.75 Light Snow and Fog/Mist FEW007 OVC018 28 27     96% 24   30.05 30.09 0    
Dec 02 04:45 NW 3 1.5 Light Snow and Fog/Mist OVC016 28 27     96% 24   30.05   0    
Dec 02 04:21 Calm 1 Light Snow and Fog/Mist OVC022 28 27     96%     30.06   0    
Dec 02 04:14 W 3 1.75 Light Snow and Fog/Mist OVC030 28 26     92% 24   30.07   0    
Dec 02 03:52 WNW 5 10 Cloudy BKN060 OVC075 28 25     88% 23   30.07 30.11      
Dec 02 02:52 W 3 10 Cloudy SCT080 OVC090 28 25     88% 24   30.09 30.14      
Dec 02 01:52 Calm 10 Cloudy OVC090 27 26     96%       30.14      
Dec 02 00:52 Calm 10 Cloudy OVC100 27 25     92%     30.1 30.14      
Dec 01 23:52 Calm 10 Clear CLR 27 25     92%     30.12 30.16      
Dec 01 22:52 NE 5 10 Partly Cloudy SCT011 SCT120 27 25     92% 21   30.13 30.18      
Dec 01 22:17 Calm 10 Cloudy OVC010 27 25     92%     30.15        
Dec 01 21:52 NE 5 10 Cloudy OVC009 28 25     88% 23   30.15 30.2      
Dec 01 21:17 Calm 10 Cloudy OVC010 28 25     88%     30.17        
Dec 01 20:52 Calm 10 Cloudy OVC009 28 26     92%     30.17 30.22      
Dec 01 20:50 Calm 10 Cloudy OVC009 28 27     93%     30.17        
Dec 01 19:52 Calm 10 Cloudy OVC011 28 26     92%     30.18 30.22      
Dec 01 18:52 NE 5 10 Cloudy OVC011 29 25     85% 24   30.16 30.21      
Dec 01 17:52 NNE 3 10 Cloudy OVC011 29 26     89% 25   30.17 30.22      
Dec 01 16:52 Calm 10 Cloudy OVC012 29 25     85%     30.17 30.22      
Dec 01 15:52 Calm 10 Cloudy OVC013 30 25     81%     30.18 30.22      
Dec 01 14:52 Calm 10 Cloudy OVC012 30 25     81%     30.19 30.24      
Dec 01 13:52 NW 6 10 Cloudy OVC013 30 25     81% 24   30.17 30.21      
Dec 01 12:52 Calm 10 Cloudy OVC014 30 25     81%     30.15 30.2      
Dec 01 11:52 Calm 10 Cloudy OVC014 30 25     81%     30.14 30.19      
Dec 01 10:52 Calm 10 Cloudy OVC014 30 25     81%     30.16 30.21      
Dec 01 10:22 Calm 10 Cloudy OVC016 30 25     81%     30.17        
Dec 01 09:52 W 3 10 Cloudy OVC014 30 25     81% 27   30.18 30.22      
Dec 01 08:52 Calm 10 Cloudy OVC013 29 27     92%     30.17 30.22      
Dec 01 08:12 Calm 10 Cloudy OVC014 29 27     92%     30.17        
Dec 01 07:52 Calm 10 Cloudy OVC015 29 27     92%     30.17 30.22      
Dec 01 06:52 Calm 10 Cloudy OVC016 28 26     92%     30.15 30.2      
Dec 01 05:52 Calm 10 Cloudy OVC020 28 26     92%     30.12 30.16      
Dec 01 04:52 Calm 10 Cloudy OVC020 28 26     92%     30.1 30.14      
Dec 01 03:52 Calm 10 Cloudy OVC018 28 26     92%     30.09 30.13      
Dec 01 02:52 Calm 10 Cloudy OVC017 28 26     92%     30.1 30.14      
Dec 01 01:52 Calm 10 Cloudy OVC016 29 26     89%     30.08 30.12      
Dec 01 01:36 Calm 10 Cloudy OVC016 28 27     96%     30.08        
Dec 01 00:52 Calm 10 Cloudy OVC014 29 27     92%     30.06 30.11      
Dec 01 00:50 Calm 10 Cloudy OVC014 28 27     93%     30.06        
Nov 30 23:52 Calm 10 Cloudy OVC017 28 26     92%     30.06 30.11      
Nov 30 23:10 Calm 10 Cloudy OVC015 29 26     89%     30.05        
Nov 30 22:52 Calm 10 Cloudy OVC014 29 26     89%     30.04 30.09      
Nov 30 21:52 Calm 10 Cloudy OVC014 29 26     89%     30.04 30.09      
Nov 30 20:52 Calm 10 Cloudy OVC014 29        %     30.04 30.08      
Nov 30 19:52 Calm 10 Cloudy OVC013 30        %     30.03 30.07      
Nov 30 18:52 Calm 10 Cloudy OVC012 30        %     30.02 30.06      
Nov 30 18:12 Calm 10 Cloudy OVC013 30        %     30.01        
Nov 30 17:52 N 3 10 Cloudy OVC017 30        % 27   30.01 30.05      
Nov 30 16:52 Calm 10 Cloudy OVC015 30 26     85%     30.01 30.05      
Nov 30 15:52 Calm 10 Cloudy OVC013 30 26     85%     30 30.04      
Nov 30 14:52 Calm 10 Cloudy OVC013 30 25     81%     29.98 30.03      
Nov 30 13:52 Calm 10 Cloudy OVC012 31 26     82%     29.97 30.01      
Nov 30 12:52 NNE 5 10 Cloudy OVC013 31 25     78% 26   29.97 30.01      
Nov 30 11:52 Calm 10 Cloudy OVC013 30 25     81%     29.98 30.02      
Nov 30 10:52 Calm 10 Cloudy OVC013 31 25     78%     29.99 30.03      
Nov 30 09:52 NNW 3 10 Cloudy OVC014 30 25     81% 27   29.99 30.03      
Nov 30 08:52 Calm 10 Cloudy OVC017 30 24     78%     29.99 30.03      
Nov 30 07:52 Calm 10 Cloudy OVC018 29 26     89%     29.99 30.03      
Nov 30 06:52 Calm 10 Cloudy OVC018 29 27     92%     29.98 30.02      
Nov 30 05:52 Calm 10 Cloudy OVC019 29 28     96%     29.96 30      
Nov 30 04:52 Calm 10 Cloudy OVC019 29 28     96%     29.95 29.99      
Nov 30 03:52 Calm 10 Cloudy OVC018 30 28     92%     29.95 29.99      
Nov 30 02:52 Calm 10 Cloudy OVC019 30 28     92%     29.95 29.99      
Nov 30 01:52 Calm 10 Cloudy OVC017 30 28     92%     29.95 29.99      
Nov 30 00:52 WSW 3 10 Cloudy OVC019 30 28     92% 27   29.93 29.97      
Nov 29 23:52 WSW 3 10 Cloudy OVC018 30 28     92% 27   29.93 29.97      
Nov 29 22:52 Calm 10 Cloudy OVC018 31 28     89%     29.91 29.95      
Nov 29 21:52 SSW 5 10 Cloudy OVC018 31 28     89% 26   29.9 29.93      
Nov 29 20:52 SSW 5 10 Cloudy OVC018 31 28     89% 26   29.9 29.93      
Nov 29 19:52 Calm 10 Cloudy OVC016 31 28     89%     29.88 29.92      
Nov 29 19:33 Calm 10 Cloudy OVC015 31 28     89%     29.88        
Nov 29 18:52 SSW 3 8 Cloudy OVC014 31 28     89% 28   29.87 29.91     0
Nov 29 18:50 SSW 3 8 Cloudy OVC014 30 28     93% 27   29.88        
Nov 29 17:52 Calm 10 Cloudy OVC016 31 28     89%     29.87 29.91      
Nov 29 16:52 WNW 6 10 Cloudy OVC015 31 27     85% 25   29.85 29.89      
Nov 29 15:52 WNW 7 10 Cloudy OVC015 31 27     85% 24   29.83 29.87   0  
Nov 29 14:52 W 5 9 Cloudy OVC021 31 28     89% 26   29.81 29.85 0    
Nov 29 14:44 3 5 Light Snow and Fog/Mist BKN017 OVC024 31 27     85% 28   29.81   0    
Nov 29 14:25 W 8 2.5 Light Snow and Fog/Mist OVC016 31 27     85% 23   29.8   0    
Nov 29 14:17 W 6 1.75 Light Snow and Fog/Mist OVC017 31 27     85% 25   29.8   0    
Nov 29 14:09 WNW 5 2 Light Snow and Fog/Mist OVC017 31 27     85% 26   29.79   0    
Nov 29 13:52 NW 6 5 Light Snow and Fog/Mist OVC017 31 27     85% 25   29.79 29.83 0    
Nov 29 12:52 NW 9 8 Cloudy OVC017 31 27     85% 23   29.78 29.82 0   0
Nov 29 11:52 NW 10 10 Cloudy OVC017 32 27     81% 24   29.76 29.79      
Nov 29 10:52 W 8 7 Cloudy OVC016 32 29     88% 25   29.74 29.78 0    
Nov 29 09:52 WNW 3 10 Cloudy OVC017 32 29     88% 29   29.73 29.77 0 0  
Nov 29 09:26 WNW 5 7 Cloudy OVC017 32 29     88% 27   29.72   0    
Nov 29 09:05 WNW 7 3 Light Snow and Fog/Mist BKN013 OVC020 32 29     88% 26   29.72   0    
Nov 29 08:56 7 1.75 Light Snow and Fog/Mist OVC013 32 29     88% 26   29.72   0    
Nov 29 08:52 NW 5 3 Light Snow and Fog/Mist OVC015 32 29     88% 27   29.71 29.75 0    
Nov 29 07:52 NW 9 10 Cloudy OVC016 32 29     88% 24   29.69 29.72      
Nov 29 06:52 W 3 10 Cloudy OVC020 32 29     88% 29   29.66 29.7      
Nov 29 05:52 Calm 10 Cloudy OVC020 32 29     88%     29.64 29.67      
Nov 29 04:52 NW 3 10 Cloudy OVC021 32 29     88% 29   29.63 29.66      
Nov 29 03:52 Calm 10 Cloudy OVC022 32 29     88%     29.61 29.64      
Nov 29 02:52 WNW 5 10 Cloudy OVC022 32 29     88% 27   29.58 29.62      
Nov 29 01:52 W 9 10 Cloudy OVC022 33 30     88% 25   29.56 29.59      
Nov 29 00:52 WNW 9 10 Cloudy OVC022 33 30     88% 25   29.53 29.56 0   0
Nov 29 00:32 WNW 6 10 Cloudy BKN025 OVC033 33 30     88% 28   29.52   0    
Nov 28 23:52 W 3 8 Light Snow SCT024 OVC031 33 31     92% 30   29.51 29.55 0    
Nov 28 23:33 W 3 2.5 Light Snow and Fog/Mist BKN020 OVC034 33 31     92% 30   29.5   0    
Nov 28 22:52 WNW 3 1.75 Light Snow and Fog/Mist BKN017 OVC022 33 32     96% 30   29.5 29.53 0    
Nov 28 22:24 WNW 6 1.5 Light Snow and Fog/Mist OVC020 33 31     92% 28   29.48   0    
Nov 28 22:10 WNW 5 2.5 Light Snow and Fog/Mist OVC024 33 32     96% 29   29.47   0    
Nov 28 21:52 WNW 6 3 Light Snow and Fog/Mist BKN020 OVC035 33 31     92% 28   29.46 29.5 0 0  
Nov 28 21:45 WNW 5 2 Light Snow and Fog/Mist BKN018 OVC035 33 31     92% 29   29.46   0    
Nov 28 21:32 WNW 6 1.25 Light Snow and Fog/Mist OVC014 33 32     96% 28   29.46   0    
Nov 28 21:08 W 3 1.75 Light Snow and Fog/Mist FEW010 OVC018 33 32     96% 30   29.45   0    
Nov 28 20:52 Calm 3 Light Snow and Fog/Mist OVC018 33 32     96%     29.44 29.47 0    
Nov 28 19:52 Calm 5 Light Snow and Fog/Mist FEW009 OVC019 33 32     96%     29.42 29.45 0    
Nov 28 19:33 Calm 9 Light Snow FEW009 BKN018 OVC024 33 31     92%     29.41   0    
Nov 28 18:52 W 3 5 Light Snow and Fog/Mist BKN019 OVC031 33 31     92% 30   29.39 29.42 0   0
Nov 28 17:52 Calm 9 Cloudy OVC018 33 31     92%     29.35 29.39 0    
Nov 28 17:01 W 6 3 Light Snow and Fog/Mist OVC021 33 31     92% 28   29.33   0    
Nov 28 16:52 WNW 5 2.5 Light Snow and Fog/Mist FEW009 OVC021 33 31     92% 29   29.32 29.36 0    
Nov 28 16:48 W 3 2.5 Light Snow and Fog/Mist FEW009 OVC023 34 32     93% 31   29.32   0    
Nov 28 16:27 W 6 3 Light Snow and Fog/Mist FEW009 BKN025 OVC035 33 31     92% 28   29.31   0    
Nov 28 16:16 W 5 2 Light Snow and Fog/Mist BKN027 OVC035 33 31     92% 29   29.31   0    
Nov 28 16:03 W 5 2.5 Light Snow and Fog/Mist FEW027 BKN035 OVC045 33 31     92% 29   29.3   0    
Nov 28 15:52 W 5 4 Light Snow and Fog/Mist SCT029 OVC041 34 31     88% 30   29.3 29.33 0 0  
Nov 28 15:41 W 5 6 Light Snow and Fog/Mist BKN029 OVC037 34 31     88% 30   29.29   0    
Nov 28 14:52 W 6 5 Light Snow and Fog/Mist SCT015 OVC032 34 31     88% 29   29.27 29.3 0    
Nov 28 14:12 WSW 3 8 Light Snow FEW014 SCT023 OVC030 34 31     88% 31   29.25   0    
Nov 28 14:02 WSW 5 6 Light Snow and Fog/Mist SCT014 OVC029 34 31     88% 30   29.24   0    
Nov 28 13:52 WSW 5 4 Light Snow and Fog/Mist BKN014 OVC028 34 32     92% 30   29.24 29.27 0    
Nov 28 13:10 WSW 5 4 Light Snow and Fog/Mist BKN014 OVC021 34 31     88% 30   29.23   0    
Nov 28 12:52 WSW 3 4 Light Snow and Fog/Mist BKN017 OVC023 34 31     88% 31   29.23 29.26 0   0
Nov 28 11:52 WSW 3 10 Cloudy OVC016 33 30     88% 30   29.22 29.26      
Nov 28 10:52 WSW 5 10 Cloudy OVC018 33 31     92% 29   29.22 29.25      
Nov 28 09:52 Calm 10 Cloudy OVC016 33 30     88%     29.22 29.25   0  
Nov 28 08:52 Calm 9 Cloudy OVC015 32 30     92%     29.21 29.24 0    
Nov 28 08:47 Calm 9 Cloudy OVC014 32 30     93%     29.21   0    
Nov 28 08:21 Calm 6 Light Snow and Fog/Mist BKN016 BKN042 OVC049 31 30     96%     29.21   0    
Nov 28 07:52 Calm 8 Cloudy FEW022 OVC047 31 30     96%     29.2 29.23 0    
Nov 28 07:39 3 9 Cloudy SCT022 BKN033 OVC049 31 29     92% 28   29.2   0    
Nov 28 06:52 3 7 Light Snow SCT017 BKN027 OVC031 31 29     92% 28   29.19 29.22 0   0
Nov 28 05:52 S 5 6 Fog/Mist OVC019 31 29     92% 26   29.18 29.21 0    
Nov 28 04:52 Calm 4 Light Snow and Fog/Mist BKN021 OVC028 31 30     96%     29.17 29.21 0    
Nov 28 03:52 SW 5 6 Light Snow and Fog/Mist BKN018 BKN027 OVC032 31 29     92% 26   29.18 29.21 0 0  
Nov 28 02:52 SW 3 9 Cloudy BKN016 OVC020 31 30     96% 28   29.18 29.21 0    
Nov 28 01:52 SSW 3 4 Light Snow and Fog/Mist OVC018 31 30     96% 28   29.19 29.22 0    
Nov 28 01:03 SSW 3 3 Light Snow and Fog/Mist FEW009 OVC017 32 30     92% 29   29.18   0    
Nov 28 00:52 SW 3 2 Light Snow and Fog/Mist OVC017 32 30     92% 29   29.18 29.21 0   0
Nov 28 00:32 3 1.25 Light Snow and Fog/Mist OVC017 31 30     96% 28   29.18   0    
Nov 28 00:17 SW 5 1 Light Snow and Fog/Mist OVC017 31 30     96% 26   29.18   0    
Nov 27 23:52 SW 5 1.75 Light Snow and Fog/Mist OVC017 32 30     92% 27   29.18 29.21 0    
Nov 27 23:30 3 1.5 Light Snow and Fog/Mist OVC015 32 30     92% 29   29.18   0    
Nov 27 22:56 SW 3 1.25 Light Snow and Fog/Mist FEW006 OVC010 32 31     96% 29   29.18   0    
Nov 27 22:52 3 1 Light Snow and Fog/Mist VV010 32 31     96% 29   29.18 29.21 0    
Nov 27 22:48 3 1 Light Snow and Fog/Mist VV009 32 30     93% 29   29.18   0    
Nov 27 22:33 SW 3 0.75 Light Snow and Fog/Mist OVC008 32 31     96% 29   29.17   0    
Nov 27 22:23 SW 3 1 Light Snow and Fog/Mist OVC010 32 31     96% 29   29.17   0    
Nov 27 21:52 SW 3 1.75 Light Snow and Fog/Mist OVC009 32 31     96% 29   29.17 29.2 0 0  
Nov 27 21:43 SW 3 2.5 Light Snow and Fog/Mist OVC009 33 31     92% 30   29.17   0    
Nov 27 21:14 Calm 2.5 Light Snow and Fog/Mist OVC011 33 31     92%     29.17   0    
Nov 27 20:52 Calm 1.75 Light Snow and Fog/Mist FEW006 OVC011 33 32     96%     29.17 29.21 0    
Nov 27 20:34 Calm 2.5 Light Snow and Fog/Mist OVC011 33 31     92%     29.18   0    
Nov 27 19:52 WSW 3 3 Light Snow and Fog/Mist OVC011 33 31     92% 30   29.18 29.21 0    
Nov 27 19:37 Calm 2.5 Light Snow and Fog/Mist OVC010 33 32     96%     29.17   0    
Nov 27 19:25 Calm 3 Light Snow and Fog/Mist BKN008 OVC012 33 32     96%     29.17   0    
Nov 27 19:14 Calm 2.5 Light Snow and Fog/Mist BKN008 OVC012 33 32     96%     29.17   0    
Nov 27 18:52 Calm 3 Light Snow and Fog/Mist BKN008 OVC012 33 32     96%     29.18 29.21 0   0
Nov 27 18:49 Calm 3 Light Snow and Fog/Mist OVC010 34 32     93%     29.18   0    
Nov 27 18:41 SW 3 2.5 Light Snow and Fog/Mist OVC012 33 32     96% 30   29.18   0    
Nov 27 18:26 WSW 5 3 Light Snow and Fog/Mist SCT006 OVC012 33 32     96% 29   29.17   0    
Nov 27 18:17 SW 3 2.5 Light Snow and Fog/Mist SCT007 OVC010 33 33     100% 30   29.18   0    
Nov 27 18:10 WSW 3 1.75 Light Snow and Fog/Mist OVC008 33 33     100% 30   29.18   0    
Nov 27 18:00 SW 3 2 Light Snow and Fog/Mist OVC008 33 33     100% 30   29.18   0    
Nov 27 17:52 3 2 Light Snow and Fog/Mist FEW005 OVC010 33 32     96% 30   29.17 29.21 0    
Nov 27 17:40 SW 3 1.5 Clear   33 32     96% 30   29.17   0    
Nov 27 17:19 Calm 1 Clear   33 33     100%     29.17   0    
Nov 27 16:52 WSW 5 0.5 Clear   33 32     96% 29   29.17 29.2 0    
Nov 27 16:29 Calm 1 Light Snow and Fog/Mist VV006 33 33     100%     29.18   0    
Nov 27 16:08 Calm 1.25 Light Snow and Fog/Mist OVC006 33 33     100%     29.17   0    
Nov 27 16:04 Calm 0.75 Light Snow and Fog/Mist VV006 33 33     100%     29.17   0    
Nov 27 15:52 Calm 0.75 Light Snow and Fog/Mist OVC005 33 33     100%     29.17 29.2 0 0  
Nov 27 15:37 Calm 0.75 Clear   33 33     100%     29.17   0    
Nov 27 15:06 Calm 0.5 Clear   34 33     96%     29.18   0    
Nov 27 14:52 Calm 0.75 Clear   34 33     96%     29.18 29.21 0    
Nov 27 14:39 Calm 0.75 Light Snow and Fog/Mist VV012 34 33     96%     29.18   0    
Nov 27 14:14 WNW 6 1 Light Snow and Fog/Mist VV014 34 33     96% 29   29.17   0    
Nov 27 14:00 WNW 7 1 Light Snow and Fog/Mist VV015 34 33     96% 28   29.17   0    
Nov 27 13:52 WNW 6 1.25 Light Snow and Fog/Mist OVC015 34 33     96% 29   29.17 29.2 0    
Nov 27 13:44 NW 8 1.25 Light Snow and Fog/Mist FEW004 OVC015 34 33     96% 27   29.17   0    
Nov 27 13:34 WNW 8 1.25 Light Snow and Fog/Mist FEW004 OVC013 34 32     92% 27   29.17   0    
Nov 27 13:21 W 7 2.5 Light Snow and Fog/Mist SCT006 OVC011 34 33     96% 28   29.17   0    
Nov 27 13:14 W 6 2 Light Snow and Fog/Mist OVC011 34 33     96% 29   29.17   0    
Nov 27 13:10 W 6 1.5 Light Snow and Fog/Mist OVC011 34 33     96% 29   29.17   0    
Nov 27 12:57 W 8 1.75 Light Snow and Fog/Mist BKN009 OVC016 34 32     92% 27   29.17   0    
Nov 27 12:52 WNW 11 2 Light Snow and Fog/Mist BKN011 OVC018 34 32     92% 26   29.17 29.2 0   0
Nov 27 12:43 WNW 7 2 Light Snow and Fog/Mist BKN009 BKN014 OVC022 34 32     92% 28   29.17   0    
Nov 27 12:29 NW 5 2.5 Light Snow and Fog/Mist FEW010 OVC021 34 32     92% 30   29.17   0    
Nov 27 11:52 NE 11 1.25 Light Snow and Fog/Mist OVC016 35 32     88% 27   29.19 29.22 0    
Nov 27 11:48 NE 9 1.5 Light Snow and Fog/Mist OVC016 34 32     93% 26   29.19   0    
Nov 27 11:40 ENE 9 1 Light Snow and Fog/Mist VV015 34 32     92% 27   29.19   0    
Nov 27 11:02 E 15 0.5 Snow and Fog FEW007 OVC011 34 32     92% 24   29.21   0    
Nov 27 10:52 NE 9 0.5 Snow and Fog VV009 34 32     92% 27   29.22 29.25 0    
Nov 27 10:43 NE 14 0.5 Snow and Fog VV008 34 32     92% 25   29.23   0    
Nov 27 09:52 E 8 0.75 Light Snow and Fog/Mist FEW007 OVC011 34 31     88% 27   29.28 29.31 0 0  
Nov 27 09:38 3 0.5 Snow and Fog VV009 34 32     92% 31   29.29   0    
Nov 27 08:59 ENE 10 0.5 Snow and Fog VV010 33 31     92% 25   29.31   0    
Nov 27 08:52 NE 9 0.5 Snow and Fog VV009 33 31     92% 25   29.32 29.35 0    
Nov 27 07:52   0.25 Snow and Fog VV009 33 31     92%     29.35 29.39 0    
Nov 27 07:49 E 20 0.25 Snow and Fog VV009 34 30     86% 22   29.36   0    
Nov 27 07:11 E 15 0.5 Snow and Fog VV013 33 30     88% 23   29.38   0    
Nov 27 06:56   1 Light Snow and Fog/Mist VV014 33 30     88%     29.37   0    
Nov 27 06:52   1.25 Light Snow and Fog/Mist BKN015 OVC055 33 30     88%     29.37 29.41 0   0
Nov 27 06:41 E 14 1.75 Light Snow and Fog/Mist BKN017 BKN055 OVC075 33 30     88% 23   29.38   0    
Nov 27 06:36 E 13 2.5 Light Snow and Fog/Mist FEW015 BKN055 OVC080 33 30     88% 24   29.38   0    
Nov 27 06:01 ENE 10 3 Light Snow FEW017 BKN046 OVC075 34 29     82% 26   29.39   0    
Nov 27 05:52 6 4 Light Snow and Fog/Mist BKN017 BKN046 OVC075 33 29     85% 28   29.39 29.42 0    
Nov 27 05:35 NE 10 8 Light Snow BKN018 BKN050 OVC070 33 29     85% 25   29.4   0    
Nov 27 04:59 ENE 10 4 Light Snow and Fog/Mist SCT021 BKN030 OVC090 33 29     85% 25   29.43   0    
Nov 27 04:52   5 Light Snow and Fog/Mist BKN021 BKN032 OVC085 33 29     85%     29.43 29.46 0    
Nov 27 04:40 ENE 14 5 Light Snow and Fog/Mist BKN021 OVC030 33 29     85% 23   29.45   0    
Nov 27 04:22 E 17 3 Light Snow and Fog/Mist FEW020 BKN032 OVC041 33 29     85% 22   29.46   0    
Nov 27 04:11 E 10 2 Light Snow and Fog/Mist FEW020 BKN032 OVC085 33 29     85% 25   29.46   0    
Nov 27 03:52 E 11 10 Cloudy FEW040 SCT055 OVC080 34 28     79% 26   29.47 29.5 0 0  
Nov 27 03:39 E 11 10 Cloudy SCT029 BKN037 OVC080 33 28     82% 24   29.47   0    
Nov 27 03:25 ESE 14 3 Light Snow and Fog/Mist BKN025 BKN070 OVC080 33 29     85% 23   29.48   0    
Nov 27 03:14   1.75 Light Snow and Fog/Mist FEW014 OVC020 33 29     85%     29.48   0    
Nov 27 03:02   1 Light Snow and Fog/Mist BKN018 OVC075 33 29     85%     29.5   0    
Nov 27 02:56 E 17 2.5 Light Snow and Fog/Mist BKN024 OVC075 33 29     85% 22   29.49   0    
Nov 27 02:52 E 17 5 Light Snow SCT030 OVC075 33 28     82% 22   29.5 29.53 0    
Nov 27 02:15 E 9 9 Cloudy FEW009 BKN035 OVC080 33 29     85% 25   29.53   0    
Nov 27 02:06 E 10 3 Light Snow and Fog/Mist BKN013 BKN017 OVC036 33 30     88% 25   29.53   0    
Nov 27 02:01 E 9 1.25 Light Snow and Fog/Mist FEW009 OVC013 33 30     88% 25   29.53   0    
Nov 27 01:59 E 10 1 Light Snow and Fog/Mist BKN013 OVC018 33 30     88% 25   29.54   0    
Nov 27 01:52 E 13 0.75 Light Snow and Fog/Mist FEW009 OVC016 32 30     92% 22   29.54 29.57 0    
Nov 27 01:44 E 14 1 Light Snow and Fog/Mist BKN018 OVC036 33 29     85% 23   29.54   0    
Nov 27 01:37 E 13 2.5 Light Snow and Fog/Mist FEW019 BKN025 OVC036 33 29     85% 24   29.54   0    
Nov 27 01:20 E 10 9 Cloudy FEW017 OVC036 33 29     85% 25   29.55   0    
Nov 27 01:04 E 6 3 Light Snow and Fog/Mist FEW015 BKN026 OVC033 33 30     88% 28   29.56   0    
Nov 27 00:52 E 14 1.25 Light Snow and Fog/Mist OVC017 33 29     85% 23   29.57 29.59 0   0
Nov 27 00:49 E 13 1.25 Light Snow and Fog/Mist OVC017 34 28     80% 25   29.57   0    
Nov 27 00:31 E 10 2 Light Snow and Fog/Mist FEW016 OVC020 33 30     88% 25   29.57   0    
Nov 27 00:20 E 16 1.5 Light Snow and Fog/Mist OVC017 33 29     85% 23   29.58   0    
Nov 27 00:12 E 11 2 Light Snow and Fog/Mist OVC015 33 29     85% 24   29.59   0    
Nov 27 00:06 NE 8 3 Light Snow and Fog/Mist OVC014 33 29     85% 26   29.59   0    
Nov 26 23:58 E 10 1.25 Light Snow and Fog/Mist BKN014 OVC019 33 30     88% 25   29.59   0    
Nov 26 23:52 E 10 0.75 Light Snow and Fog/Mist VV013 32 30     92% 24   29.59 29.62 0    
Nov 26 23:47 E 11 0.75 Light Snow and Fog/Mist VV016 34 28     80% 25   29.59   0    
Nov 26 23:40   1.75 Light Snow and Fog/Mist OVC020 33 29     85%     29.6   0    
Nov 26 23:34 E 14 3 Light Snow FEW017 BKN025 OVC032 34 29     82% 25   29.62   0    
Nov 26 23:18 E 11 2.5 Light Snow BKN025 OVC032 34 29     82% 26   29.62   0    
Nov 26 22:52 E 13 4 Light Snow SCT017 OVC023 34 28     79% 25   29.64 29.67 0    
Nov 26 22:22 E 13 3 Light Snow and Fog/Mist OVC019 33 29     85% 24   29.67   0    
Nov 26 21:52 E 16 2.5 Light Snow BKN019 OVC030 34 29     82% 24   29.69 29.72 0 0  
Nov 26 21:35 E 13 5 Light Snow SCT017 BKN028 OVC034 34 29     82% 25   29.7   0    
Nov 26 20:59 E 11 4 Light Snow FEW016 OVC032 34 29     82% 26   29.72   0    
Nov 26 20:52 E 15 3 Light Snow FEW017 OVC028 34 29     82% 24   29.72 29.75 0    
Nov 26 19:52 NE 5 8 Light Snow OVC016 35 30     82% 31   29.75 29.79 0    
Nov 26 19:39 ENE 8 10 Cloudy BKN016 OVC085 35 30     82% 29   29.76   0    
Nov 26 19:13 E 10 9 Cloudy SCT029 SCT039 OVC095 35 31     85% 27   29.75   0    
Nov 26 19:06 E 7 9 Light Snow BKN027 BKN039 OVC100 36 31     82% 30   29.76   0    
Nov 26 18:52 E 5 9 Light Snow BKN033 OVC085 35 32     88% 31   29.77 29.8 0   0
Nov 26 18:03 NE 8 9 Light Snow FEW020 BKN030 OVC049 35 31     85% 29   29.82   0    
Nov 26 17:52 5 9 Light Snow FEW020 OVC027 36 31     82% 32   29.83 29.86 0    
Nov 26 17:39 SSE 6 10 Cloudy FEW019 FEW023 OVC031 36 31     82% 31   29.83        
Nov 26 16:52 E 8 10 Cloudy BKN024 OVC032 37 31     78% 31   29.77 29.8      
Nov 26 16:14 ENE 13 10 Cloudy BKN029 OVC070 37 31     78% 29   29.76        
Nov 26 15:52 E 11 10 Cloudy FEW025 BKN032 OVC090 37 31     78% 29   29.78 29.82      
Nov 26 15:47 E 10 10 Cloudy FEW023 BKN030 OVC085 37 30     75% 30   29.79        
Nov 26 15:14 5 10 Cloudy BKN023 BKN030 OVC042 38 32     79% 34   29.82        
Nov 26 14:52 SE 5 10 Cloudy FEW029 OVC042 39 31     72% 36   29.83 29.86      
Nov 26 13:52 S 15 10 Mostly Cloudy BKN043 BKN095 39 32     76% 31   29.83 29.86      
Nov 26 12:52 S 8 10 Cloudy BKN045 OVC110 40 32     73% 34   29.85 29.88      
Nov 26 11:52 Calm 10 Mostly Cloudy FEW021 BKN120 40 33     76%     29.87 29.9      
Nov 26 10:52 ESE 6 10 Clear CLR 38 33     82% 33   29.89 29.93      
Nov 26 09:52 ENE 6 10 Clear CLR 38 34     85% 33   29.9 29.94      
Nov 26 08:52 ENE 13 10 Cloudy OVC050 36 33     89% 27   29.92 29.95      
Nov 26 07:52 E 8 10 Cloudy FEW032 OVC050 35 33     92% 29   29.92 29.95      
Nov 26 07:15 WNW 3 10 Cloudy FEW008 FEW030 OVC055 34 33     96% 31   29.92        
Nov 26 07:08 Calm 10 Cloudy SCT008 BKN029 OVC055 34 33     96%     29.92        
Nov 26 06:59 NW 3 3 Fog/Mist BKN008 BKN029 OVC055 34 33     96% 31   29.93        
Nov 26 06:52 Calm 1.5 Fog/Mist BKN008 OVC029 34 33     96%     29.93 29.96     0
Nov 26 06:42 Calm 1 Fog/Mist OVC006 34 33     96%     29.93        
Nov 26 06:33 Calm 0.75 Fog/Mist OVC004 34 33     96%     29.93        
Nov 26 06:16 Calm 1 Fog/Mist BKN002 OVC006 34 33     96%     29.94        
Nov 26 05:59 Calm 1.5 Fog/Mist OVC003 34 33     96%     29.94        
Nov 26 05:52 Calm 2 Fog/Mist OVC003 34 33     96%     29.94 29.98      
Nov 26 05:33 Calm 2.5 Fog/Mist OVC004 34 33     96%     29.94        
Nov 26 05:10 Calm 3 Fog/Mist BKN005 OVC013 34 33     96%     29.93        
Nov 26 04:59 Calm 2 Fog/Mist SCT005 OVC013 33 33     100%     29.92        
Nov 26 04:52 Calm 2.5 Fog/Mist OVC011 33 33     100%     29.92 29.96      
Nov 26 04:34 Calm 3 Fog/Mist OVC011 34 33     96%     29.92        
Nov 26 04:28 Calm 1.25 Fog/Mist FEW004 OVC011 33 33     100%     29.92        
Nov 26 04:14 Calm 0.75 Fog/Mist SCT004 OVC010 34 33     96%     29.91        
Nov 26 03:52 Calm 1 Fog/Mist VV004 34 33     96%     29.92 29.95 0 0  
Nov 26 03:28 Calm 1.25 Light Rain and Fog/Mist BKN004 OVC009 34 33     96%     29.92   0    
Nov 26 02:52 Calm 1.25 Unknown Precipitation and Fog/Mist BKN006 OVC010 34 33     96%     29.92 29.96 0    
Nov 26 02:40 Calm 1 Unknown Precipitation and Fog/Mist VV006 34 33     96%     29.92   0    
Nov 26 02:10 Calm 1 Fog/Mist OVC004 34 33     96%     29.92        
Nov 26 02:03 Calm 1.25 Fog/Mist OVC005 34 34     100%     29.92        
Nov 26 01:52 Calm 1 Fog/Mist OVC005 34 33     96%     29.92 29.96      
Nov 26 01:46 Calm 1 Fog/Mist OVC005 34 34     100%     29.92        
Nov 26 01:36 Calm 1.25 Fog/Mist OVC004 34 33     96%     29.91        
Nov 26 01:12 Calm 1 Fog/Mist OVC004 34 34     100%     29.91        
Nov 26 01:02 Calm 2 Fog/Mist OVC003 34 34     100%     29.91        
Nov 26 00:52 Calm 1.5 Fog/Mist BKN003 OVC011 34 34     100%     29.91 29.94     0
Nov 26 00:35 Calm 1.5 Fog/Mist BKN003 OVC012 34 34     100%     29.91        
Nov 26 00:03 Calm 2 Fog/Mist BKN002 OVC015 34 33     96%     29.9        
Nov 25 23:52 Calm 1.75 Fog/Mist BKN002 OVC015 34 34     100%     29.9 29.94      
Nov 25 23:39 Calm 1.25 Fog/Mist BKN002 OVC016 34 34     100%     29.9        
Nov 25 23:30 Calm 1.5 Fog/Mist SCT002 OVC015 34 34     100%     29.9        
Nov 25 23:20 Calm 1.25 Fog/Mist OVC015 34 33     96%     29.9        
Nov 25 23:14 Calm 1 Fog/Mist FEW002 OVC014 34 33     96%     29.9        
Nov 25 23:05 Calm 2.5 Fog/Mist FEW002 SCT009 OVC014 34 33     96%     29.9        
Nov 25 22:52 Calm 3 Fog/Mist SCT002 BKN009 OVC014 34 33     96%     29.9 29.93      
Nov 25 22:47 Calm 3 Fog/Mist SCT002 OVC010 34 34     100%     29.9        
Nov 25 22:41 Calm 1.75 Fog/Mist SCT002 OVC010 34 33     96%     29.9        
Nov 25 22:27 Calm 1.25 Fog/Mist FEW002 OVC008 34 34     100%     29.9        
Nov 25 21:52 Calm 0.5 Fog VV006 34 34     100%     29.9 29.94 0 0  
Nov 25 21:43 Calm 0.5 Fog VV006 34 33     96%     29.9   0    
Nov 25 21:23 Calm 0.75 Fog/Mist VV004 34 33     96%     29.9   0    
Nov 25 21:15 Calm 1.75 Light Rain and Fog/Mist OVC002 34 33     96%     29.9   0    
Nov 25 20:52 Calm 3 Fog/Mist BKN003 OVC010 34 34     100%     29.91 29.94 0    
Nov 25 20:34 Calm 4 Fog/Mist FEW004 OVC008 34 33     96%     29.9   0    
Nov 25 20:25 Calm 3 Light Rain and Fog/Mist SCT005 OVC010 34 33     96%     29.9   0    
Nov 25 20:15 Calm 2 Light Rain and Fog/Mist BKN005 OVC009 34 33     96%     29.9   0    
Nov 25 20:08 Calm 1.75 Light Rain and Fog/Mist OVC004 34 33     96%     29.9   0    
Nov 25 19:52 Calm 3 Fog/Mist OVC004 34 33     96%     29.9 29.94      
Nov 25 18:52 Calm 5 Clear   34 33     96%     29.89 29.93     0
Nov 25 17:59 Calm 3 Fog/Mist OVC002 34 33     96%     29.88        
Nov 25 17:52 Calm 1.75 Fog/Mist OVC002 34 34     100%     29.88 29.91      
Nov 25 17:33 Calm 3 Fog/Mist OVC002 34 33     96%     29.87        
Nov 25 17:22 Calm 1.75 Fog/Mist BKN002 OVC019 34 34     100%     29.87        
Nov 25 16:52 Calm 4 Fog/Mist BKN003 OVC022 34 33     96%     29.86 29.9 0    
Nov 25 16:39 Calm 3 Fog/Mist SCT003 OVC022 34 34     100%     29.85   0    
Nov 25 16:29 Calm 1.25 Fog/Mist FEW003 OVC023 35 34     96%     29.85   0    
Nov 25 16:14 Calm 1.25 Fog/Mist OVC025 35 35     100%     29.84   0    
Nov 25 15:52 Calm 0.5 Fog FEW003 OVC028 35 35     100%     29.83 29.87   0  
Nov 25 15:47 Calm 0.25 Fog FEW003 OVC028 36 36     100%     29.83        
Nov 25 15:29 Calm 0.5 Fog FEW004 OVC030 36 35     96%     29.84        
Nov 25 15:21 Calm 0.75 Fog/Mist OVC030 36 36     100%     29.83        
Nov 25 15:17 Calm 1.75 Fog/Mist OVC032 37 36     96%     29.83        
Nov 25 15:01 Calm 3 Fog/Mist SCT004 OVC032 37 36     96%     29.83        
Nov 25 14:52 Calm 5 Fog/Mist BKN004 OVC032 37 36     96%     29.83 29.86 0    
May 15 12:30 NE 5 3 Light Rain and Fog/Mist FEW008 BKN015 OVC055 61 59     93%     29.77   0    
May 15 04:52 Calm 10 Clear CLR 44 41     89%     29.8 29.8      
May 14 18:52 WSW 7 10 Clear CLR 75 42     31%   74 29.81 29.81      
May 14 05:52 Calm 10 Clear CLR 33 31     92%     29.97 29.98      
May 12 08:52 3 10 Clear   47 28     48% 46   30.2 30.22      
May 12 04:52 Calm 10 Clear CLR 28 25     88%     30.18 30.21      
May 12 01:52 Calm 10 Clear CLR 29 25     85%     30.18 30.2      
Notice The following observation data may not be complete
Jun 12 04:52 Calm 8 Clear CLR   55      %     29.97 29.96      
Jun 11 14:52 WSW 14 10 Clear CLR 87 58     37%   86 29.86 29.85      
Jun 11 13:52   10 Clear CLR 84 59     43%   84 29.86 29.85      
Jun 11 02:52 Calm 10 Partly Cloudy SCT100 53 50     89%     29.93 29.93      
Notice The following observation data may not be complete
Jun 10 03:16   8 Clear CLR          %         0    
Jun 09 07:52 SSE 5 10 Cloudy OVC070 54 50     86%     29.69 29.68      
Jun 08 22:52 Calm 10 Clear CLR 58 52     81%     29.85 29.84      
Jun 08 10:52 NNW 3 10 Clear CLR 75 50     41%   74 30.02 30.01      
Jun 08 03:52 Calm 10 Clear CLR 42 39     89%     30.03 30.03      
Jun 08 02:52 Calm 10 Clear CLR 43 40     89%     30.03 30.03      
Jun 07 20:52 Calm 10 Clear CLR 58 51     78%     29.98 29.99      
Jun 07 12:52 NW 7 10 Clear CLR 71 49     45%   70 29.96 29.96      
Jun 07 09:52 Calm 10 Partly Cloudy SCT009 57 50     77%     30.02 30.03      
Jun 06 12:52 E 8 10 Light Rain OVC075 50 42     74% 47   29.89 29.9 0    
Jun 05 20:52 Calm 10 Cloudy BKN040 BKN055 OVC070 55 46     72%     29.89 29.89